Stations météo

réclame
Mon MeteoGroup
J6-A, Pays-Bas (6211): Température de l'air & dewpoint: 08.07.2020 04:00:00 - 14.07.2020 04:00:00 (CEST)J6-A, Pays-Bas (6211): Vitesse du vent & gusts: 08.07.2020 04:00:00 - 14.07.2020 04:00:00 (CEST)J6-A, Pays-Bas (6211): Direction du vent: 08.07.2020 04:00:00 - 14.07.2020 04:00:00 (CEST)J6-A, Pays-Bas (6211): reduced air pressure: 08.07.2020 04:00:00 - 14.07.2020 04:00:00 (CEST)J6-A, Pays-Bas (6211): visibility: 08.07.2020 04:00:00 - 14.07.2020 04:00:00 (CEST)
Date & Time tt [°C] td [°C] ff [km/h] ff [knt] fx [km/h] fx [knt] dd ppp [hPa] vv [km]
14.07.2020 04:00:00 15,4 13,2 29 16 29 16 W 1015,2 10
14.07.2020 03:00:00 15,4 13,9 31 17 32 18 W 1015,5 10
14.07.2020 02:00:00 15,5 14,5 28 15 32 18 WSW 1015,6 10
14.07.2020 01:00:00 15,9 14,8 34 18 36 19 SW 1016,1 10
14.07.2020 00:00:00 16,2 14,7 35 19 36 19 SSW 1016,6 10
13.07.2020 23:00:00 16,4 14,4 28 15 36 19 SSW 1017,1 10
13.07.2020 22:00:00 16,2 14,0 29 16 32 18 SSW 1017,3 10
13.07.2020 21:00:00 16,0 13,6 28 15 32 18 SW 1017,4 10
13.07.2020 20:00:00 16,0 14,0 22 12 25 14 SSW 1017,9 47
13.07.2020 19:00:00 16,2 13,3 22 12 29 16 SSW 1018,5 49
13.07.2020 18:00:00 16,0 13,7 24 13 25 14 SSW 1019,0 10
13.07.2020 17:00:00 16,0 12,9 31 17 29 16 SSW 1019,4 10
13.07.2020 16:00:00 16,2 12,3 31 17 32 18 SSW 1020,0 10
13.07.2020 15:00:00 16,1 12,0 34 18 32 18 SSW 1020,7 10
13.07.2020 14:00:00 16,0 12,6 26 14 29 16 SSW 1021,6 10
13.07.2020 13:00:00 15,7 12,6 26 14 25 14 SSW 1021,9 10
13.07.2020 12:00:00 15,6 12,5 28 15 32 18 SSW 1022,6 10
13.07.2020 11:00:00 15,8 12,9 31 17 32 18 SSW 1022,7 10
13.07.2020 10:00:00 15,8 12,5 31 17 32 18 SSW 1023,1 10
13.07.2020 09:00:00 15,8 12,1 29 16 29 16 SSW 1023,3 10
13.07.2020 08:00:00 15,7 12,1 28 15 29 16 SSW 1023,6 10
13.07.2020 07:00:00 15,6 11,9 28 15 29 16 SSW 1024,0 10
13.07.2020 06:00:00 15,5 11,7 24 13 25 14 SSW 1024,2 10
13.07.2020 05:00:00 15,5 11,4 18 10 22 12 SSW 1024,6 50
13.07.2020 04:00:00 15,4 11,4 21 11 22 12 SSW 1025,3 10
13.07.2020 03:00:00 15,4 11,8 21 11 22 12 SSW 1026,0 10
13.07.2020 02:00:00 15,3 11,4 18 10 22 12 SSW 1026,3 10
13.07.2020 01:00:00 15,3 11,9 21 11 22 12 SSW 1026,6 10
13.07.2020 00:00:00 15,1 10,5 15 8 18 10 SSW 1027,0 10
12.07.2020 23:00:00 14,5 10,9 9 5 11 6 SSW 1027,0 10
12.07.2020 22:00:00 14,5 10,7 8 4 7 4 SSW 1027,0 10
12.07.2020 21:00:00 15,0 10,7 8 4 11 6 SSW 1027,3 10
12.07.2020 20:00:00 15,0 10,7 9 5 11 6 SW 1027,8 10
12.07.2020 19:00:00 14,7 10,5 9 5 7 4 SW 1028,0 10
12.07.2020 18:00:00 14,6 10,8 8 4 11 6 WSW 1028,3 10
12.07.2020 17:00:00 14,3 10,9 11 6 14 8 W 1028,5 10
12.07.2020 16:00:00 14,2 11,2 13 7 14 8 W 1028,9 10
12.07.2020 15:00:00 14,2 11,6 13 7 14 8 WSW 1029,2 10
12.07.2020 14:00:00 14,1 11,8 15 8 14 8 WSW 1029,3 10
12.07.2020 13:00:00 14,1 11,7 13 7 14 8 WSW 1029,2 10
12.07.2020 12:00:00 14,0 11,3 9 5 11 6 SW 1028,9 10
12.07.2020 11:00:00 14,1 11,7 11 6 11 6 WSW 1028,6 10
12.07.2020 10:00:00 14,2 11,6 13 7 14 8 SW 1028,5 10
12.07.2020 09:00:00 14,2 12,2 15 8 22 12 WSW 1028,2 10
12.07.2020 08:00:00 14,3 11,9 22 12 22 12 WSW 1027,8 10
12.07.2020 07:00:00 14,5 11,4 22 12 22 12 WSW 1027,6 10
12.07.2020 06:00:00 14,4 10,7 24 13 22 12 WSW 1027,3 10
12.07.2020 05:00:00 14,3 10,6 22 12 22 12 WSW 1027,1 10
12.07.2020 04:00:00 14,2 9,9 21 11 18 10 WSW 1027,1 10
12.07.2020 03:00:00 14,2 10,3 18 10 22 12 W 1027,1 10
12.07.2020 02:00:00 13,9 10,7 22 12 22 12 W 1027,2 10
12.07.2020 01:00:00 13,8 10,5 18 10 18 10 WSW 1027,1 10
12.07.2020 00:00:00 13,7 9,9 16 9 18 10 W 1027,2 10
11.07.2020 23:00:00 13,6 10,4 18 10 18 10 W 1027,1 10
11.07.2020 22:00:00 13,7 10,2 13 7 18 10 W 1026,7 10
11.07.2020 21:00:00 13,9 10,0 16 9 18 10 WNW 1026,4 10
11.07.2020 20:00:00 14,0 10,3 18 10 22 12 WNW 1026,6 10
11.07.2020 19:00:00 13,9 10,3 26 14 25 14 NW 1026,4 10
11.07.2020 18:00:00 14,1 10,3 28 15 25 14 NW 1026,5 10
11.07.2020 17:00:00 14,1 10,2 22 12 29 16 NW 1026,0 39
11.07.2020 16:00:00 14,1 10,0 29 16 29 16 NW 1025,8 10
11.07.2020 15:00:00 14,2 10,5 25 14 29 16 WNW 1025,3 43
11.07.2020 14:00:00 13,8 11,4 24 13 25 14 W 1025,0 10
11.07.2020 13:00:00 13,6 11,1 26 14 25 14 WNW 1024,5 10
11.07.2020 12:00:00 13,5 10,7 22 12 25 14 WNW 1024,0 10
11.07.2020 11:00:00 13,5 11,0 21 11 22 12 W 1023,3 10
11.07.2020 10:00:00 13,4 10,9 18 10 18 10 W 1022,9 10
11.07.2020 09:00:00 13,3 10,6 18 10 18 10 WSW 1022,4 10
11.07.2020 08:00:00 13,3 10,1 14 8 14 8 WSW 1021,7 43
11.07.2020 07:00:00 13,0 9,7 11 6 14 8 WSW 1021,2 10
11.07.2020 06:00:00 12,8 9,6 11 6 14 8 WNW 1020,9 48
11.07.2020 05:00:00 12,8 9,3 16 9 18 10 W 1020,3 10
11.07.2020 04:00:00 12,9 9,4 18 10 18 10 W 1020,4 10
11.07.2020 03:00:00 12,9 9,6 14 8 18 10 W 1020,4 46
11.07.2020 02:00:00 13,0 9,4 18 10 22 12 W 1020,3 10
11.07.2020 01:00:00 13,1 9,0 18 10 22 12 W 1019,7 10
11.07.2020 00:00:00 13,2 8,8 18 10 18 10 W 1019,5 10
10.07.2020 23:00:00 13,2 8,6 21 11 22 12 W 1019,3 10
10.07.2020 22:00:00 13,3 9,5 21 11 22 12 W 1018,9 10
10.07.2020 21:00:00 13,5 9,4 18 10 18 10 W 1018,6 10
10.07.2020 20:00:00 13,6 8,5 18 10 22 12 W 1018,3 10
10.07.2020 19:00:00 13,4 9,0 16 9 18 10 WNW 1018,0 10
10.07.2020 18:00:00 13,4 8,6 21 11 18 10 WNW 1017,9 10
10.07.2020 17:00:00 13,4 8,2 21 11 22 12 WNW 1017,4 10
10.07.2020 16:00:00 13,4 8,3 21 11 22 12 WNW 1016,8 10
10.07.2020 15:00:00 13,4 8,2 22 12 22 12 NW 1016,5 10
10.07.2020 14:00:00 13,5 8,2 21 11 25 14 NW 1016,0 10
10.07.2020 13:00:00 13,4 7,5 22 12 22 12 - 1015,6 10
10.07.2020 12:00:00 13,0 8,0 21 11 - - NW 1015,3 10
10.07.2020 11:00:00 13,3 7,3 16 9 18 10 N 1014,0 10
10.07.2020 10:00:00 13,4 8,2 21 11 22 12 N 1013,0 10
10.07.2020 09:00:00 13,5 8,0 21 11 22 12 NNE 1012,7 10
10.07.2020 08:00:00 13,3 8,9 24 13 22 12 NE 1012,1 10
10.07.2020 07:00:00 13,3 8,2 21 11 25 14 N 1012,0 10
10.07.2020 06:00:00 13,3 8,7 26 14 25 14 NNE 1011,2 10
10.07.2020 05:00:00 13,3 8,8 21 11 29 16 NNE 1011,4 10
10.07.2020 04:00:00 13,3 8,8 29 16 32 18 NNE 1011,1 10
10.07.2020 03:00:00 13,4 8,8 29 16 32 18 NNE 1011,1 10
10.07.2020 02:00:00 13,5 9,3 34 18 36 19 NNE 1011,3 10
10.07.2020 01:00:00 13,6 10,3 37 20 40 21 NNE 1011,3 10
10.07.2020 00:00:00 13,6 10,2 37 20 36 19 NNE 1011,2 10
09.07.2020 23:00:00 13,7 10,3 37 20 40 21 NE 1011,1 10
09.07.2020 22:00:00 13,7 10,3 39 21 40 21 NE 1010,9 10
09.07.2020 21:00:00 13,7 10,4 35 19 36 19 NNE 1011,5 10
09.07.2020 20:00:00 13,8 10,2 35 19 36 19 NE 1011,4 10
09.07.2020 19:00:00 13,9 9,9 34 18 36 19 NE 1011,6 10
09.07.2020 18:00:00 13,9 10,6 35 19 32 18 NE 1012,1 10
09.07.2020 17:00:00 14,0 10,5 34 18 32 18 NE 1012,1 10
09.07.2020 16:00:00 13,8 10,6 34 18 32 18 NE 1012,4 10
09.07.2020 15:00:00 13,8 11,2 37 20 36 19 NE 1012,1 10
09.07.2020 14:00:00 13,7 11,2 39 21 40 21 ENE 1011,8 10
09.07.2020 13:00:00 13,5 11,6 42 23 43 23 NE 1011,7 10
09.07.2020 12:00:00 12,9 11,4 41 22 43 23 NE 1011,1 9
09.07.2020 11:00:00 12,9 11,2 36 19 47 25 NE 1011,0 22
09.07.2020 10:00:00 12,5 11,2 50 27 50 27 ENE 1010,6 10
09.07.2020 09:00:00 12,3 11,2 50 27 50 27 NE 1010,5 6
09.07.2020 08:00:00 12,5 11,5 48 26 50 27 NE 1010,4 6
09.07.2020 07:00:00 12,6 11,1 42 23 43 23 ENE 1010,8 5
09.07.2020 06:00:00 12,9 10,4 41 22 40 21 ENE 1011,1 10
09.07.2020 05:00:00 12,9 10,6 35 19 36 19 ENE 1012,0 7
09.07.2020 04:00:00 13,2 9,9 34 18 32 18 ENE 1012,9 10
09.07.2020 03:00:00 13,4 10,1 29 16 29 16 E 1013,6 2,4
09.07.2020 02:00:00 13,8 9,9 26 14 29 16 E 1014,3 10
09.07.2020 01:00:00 13,7 9,6 22 12 29 16 ENE 1014,9 10
09.07.2020 00:00:00 13,7 9,4 22 12 29 16 ENE 1014,9 10
08.07.2020 23:00:00 13,7 9,3 22 12 25 14 ENE 1015,3 10
08.07.2020 22:00:00 13,5 9,0 21 11 22 12 ENE 1015,3 10
08.07.2020 21:00:00 13,7 9,0 18 10 25 14 ENE 1016,0 10
08.07.2020 20:00:00 13,6 9,2 18 10 18 10 ENE 1016,0 10
08.07.2020 19:00:00 13,6 8,6 14 8 22 12 NE 1016,3 40
08.07.2020 18:00:00 13,9 9,0 14 8 18 10 NE 1016,7 42
08.07.2020 17:00:00 13,8 9,1 14 8 22 12 NE 1016,9 43
08.07.2020 16:00:00 13,8 9,1 18 10 22 12 NE 1016,8 10
08.07.2020 15:00:00 13,9 9,3 21 11 22 12 NE 1016,8 10
08.07.2020 14:00:00 14,0 9,0 18 10 22 12 NE 1016,4 10
08.07.2020 13:00:00 14,1 9,3 16 9 18 10 NE 1016,1 10
08.07.2020 12:00:00 14,0 9,2 18 10 18 10 NE 1016,0 10
08.07.2020 11:00:00 14,0 8,8 18 10 18 10 NE 1015,2 10
08.07.2020 10:00:00 13,8 9,3 18 10 18 10 NE 1015,5 10
08.07.2020 09:00:00 13,5 9,9 16 9 18 10 NE 1014,8 10
08.07.2020 08:00:00 13,3 9,8 15 8 14 8 NE 1014,5 10
08.07.2020 07:00:00 13,2 9,0 9 5 14 8 NNE 1014,3 10
08.07.2020 06:00:00 13,1 8,9 11 6 11 6 NNE 1014,2 10
08.07.2020 05:00:00 12,9 9,4 8 4 7 4 NE 1014,4 10
08.07.2020 04:00:00 12,9 9,5 8 4 7 4 N 1014,8 10

tt = Température de l'air
td = dewpoint
ff = Vitesse du vent
fx = gusts
dd = Direction du vent
ppp = reduced air pressure
vv = visibility

stations d'obs. à proximité